Change the Weather History Date:

Monday, August 27, 2012

  Actual Average (KISQ) Record (KISQ)
Temperature  
Mean Temperature 65 °F -  
Max Temperature 71 °F 73 °F 88 °F (1991)
Min Temperature 57 °F 53 °F 39 °F (1968)
Growing Degree Days 15 (Base 50)    
Moisture  
Dew Point 59 °F    
Average Humidity 77    
Maximum Humidity 93    
Minimum Humidity 63    
Precipitation  
Precipitation 0.00 in - - ()
Sea Level Pressure  
Sea Level Pressure 30.02 in    
Wind  
Wind Speed 8 mph (NW)    
Max Wind Speed 15 mph    
Max Gust Speed 20 mph    
Averages and records for this station are not official NWS values.
T = Trace of Precipitation, MM = Missing Value Source: NWS Daily Summary

Daily Weather History Graph

Daily Weather History Graph

Search for Another Location

Airport or City:

Trip Planner

Search our weather history database for the weather conditions in past years. The results will help you decide how hot, cold, wet, or windy it might be!

Date:

Astronomy

Aug. 27, 2012 Rise Set
Actual Time 7:01 AM EDT 8:33 PM EDT
Civil Twilight 6:29 AM EDT 9:05 PM EDT
Nautical Twilight 5:51 AM EDT 9:43 PM EDT
Astronomical Twilight 5:09 AM EDT 10:24 PM EDT
Moon 6:01 PM EDT (8/27) 2:33 AM EDT (8/27)
Length of Visible Light 14h 35m
Length of Day
13h 32m
Waxing Gibbous, 82% of the Moon is Illuminated
Aug 27
Waxing Gibbous
Aug 31
Full
Sep 8
Last Quarter
Sep 15
New
Sep 22
First Quarter

Hourly Weather History & Observations

Time (EDT) Temp. Dew Point Humidity Pressure Visibility Wind Dir Wind Speed Gust Speed Precip Events Conditions
12:56 AM 66.9 °F 64.9 °F 93% 29.93 in - SW 10.4 mph - N/A   Unknown
1:56 AM 66.9 °F 64.9 °F 93% 29.93 in - SW 10.4 mph - N/A   Unknown
2:56 AM 66.9 °F 63.0 °F 87% 29.93 in - SW 4.6 mph - N/A   Unknown
3:56 AM 64.9 °F 60.1 °F 84% 29.94 in - Calm Calm - N/A   Unknown
4:56 AM 66.9 °F 59.0 °F 76% 29.95 in - WNW 5.8 mph - N/A   Unknown
5:56 AM 60.1 °F 57.0 °F 90% 29.97 in - South 4.6 mph - N/A   Unknown
6:56 AM 59.0 °F 55.9 °F 90% 29.98 in - Calm Calm - N/A   Unknown
7:56 AM 61.0 °F 57.0 °F 87% 30.00 in - Calm Calm - N/A   Unknown
8:56 AM 69.1 °F 60.1 °F 73% 30.01 in - WNW 4.6 mph - N/A   Unknown
9:56 AM 70.0 °F 59.0 °F 68% 30.02 in - NW 11.5 mph - N/A   Unknown
10:56 AM 70.0 °F 59.0 °F 68% 30.03 in - NW 11.5 mph - N/A   Unknown
11:56 AM 71.1 °F 59.0 °F 66% 30.03 in - NNW 13.8 mph - N/A   Unknown
12:56 PM 70.0 °F 60.1 °F 71% 30.05 in - NNW 13.8 mph - N/A   Unknown
1:56 PM 70.0 °F 60.1 °F 71% 30.05 in - NW 15.0 mph - N/A   Unknown
2:56 PM 70.0 °F 60.1 °F 71% 30.05 in - NNW 12.7 mph - N/A   Unknown
3:56 PM 70.0 °F 59.0 °F 68% 30.05 in - NNW 12.7 mph - N/A   Unknown
4:56 PM 71.1 °F 60.1 °F 68% 30.05 in - NW 9.2 mph - N/A   Unknown
5:56 PM 70.0 °F 62.1 °F 76% 30.06 in - NE 12.7 mph 19.6 mph N/A   Unknown
6:56 PM 70.0 °F 60.1 °F 71% 30.06 in - North 10.4 mph - N/A   Unknown
7:56 PM 69.1 °F 55.9 °F 63% 30.05 in - North 10.4 mph - N/A   Unknown
8:56 PM 66.0 °F 57.0 °F 73% 30.06 in - NNW 5.8 mph - N/A   Unknown
9:56 PM 64.9 °F 57.9 °F 78% 30.07 in - NNW 4.6 mph - N/A   Unknown
10:56 PM 63.0 °F 57.0 °F 81% 30.07 in - NW 3.5 mph - N/A   Unknown
11:56 PM 57.9 °F 54.0 °F 87% 30.09 in - South 6.9 mph - N/A   Unknown